TimePST,TemperatureF,Dew PointF,Humidity,Sea Level PressureIn,VisibilityMPH,Wind Direction,Wind SpeedMPH,Gust SpeedMPH,PrecipitationIn,Events,Conditions,WindDirDegrees,DateUTC
12:53 AM,28.0,23.0,81,30.30,10.0,Calm,Calm,-,N/A,,Overcast,0,2012-12-30 08:53:00
1:53 AM,28.0,24.1,85,30.31,10.0,Calm,Calm,-,N/A,,Overcast,0,2012-12-30 09:53:00
2:53 AM,27.0,24.1,89,30.32,10.0,Calm,Calm,-,N/A,,Overcast,0,2012-12-30 10:53:00
3:53 AM,26.1,23.0,88,30.33,8.0,Calm,Calm,-,N/A,,Overcast,0,2012-12-30 11:53:00
4:53 AM,25.0,21.0,85,30.33,7.0,Calm,Calm,-,0.00,,Overcast,0,2012-12-30 12:53:00
5:53 AM,24.1,21.9,91,30.33,6.0,Calm,Calm,-,0.00,,Overcast,0,2012-12-30 13:53:00
6:53 AM,19.0,16.0,88,30.35,4.0,West,4.6,-,0.00,,Clear,280,2012-12-30 14:53:00
7:08 AM,15.8,12.2,86,30.30,1.8,West,4.6,-,0.00,,Clear,270,2012-12-30 15:08:00
7:21 AM,15.8,12.2,86,30.30,3.0,West,4.6,-,0.00,,Clear,270,2012-12-30 15:21:00
7:53 AM,12.0,9.0,88,30.35,5.0,West,3.5,-,0.00,,Clear,270,2012-12-30 15:53:00
8:53 AM,16.0,12.0,84,30.38,6.0,West,6.9,-,0.00,,Clear,270,2012-12-30 16:53:00
9:53 AM,21.9,18.0,85,30.40,10.0,WSW,3.5,-,0.00,,Clear,250,2012-12-30 17:53:00
10:53 AM,27.0,19.9,75,30.38,10.0,West,3.5,-,N/A,,Clear,270,2012-12-30 18:53:00
11:53 AM,28.9,21.9,75,30.37,10.0,Calm,Calm,-,N/A,,Clear,0,2012-12-30 19:53:00
12:53 PM,30.9,21.9,69,30.36,10.0,Calm,Calm,-,N/A,,Partly Cloudy,0,2012-12-30 20:53:00
1:53 PM,28.9,21.9,75,30.36,9.0,SSE,3.5,-,N/A,,Partly Cloudy,150,2012-12-30 21:53:00
2:53 PM,30.0,23.0,75,30.36,10.0,Calm,Calm,-,N/A,,Scattered Clouds,0,2012-12-30 22:53:00
3:53 PM,28.9,21.9,75,30.37,10.0,Calm,Calm,-,N/A,,Scattered Clouds,0,2012-12-30 23:53:00
4:46 PM,21.2,17.6,86,30.32,7.0,Calm,Calm,-,N/A,,Mostly Cloudy,0,2012-12-31 00:46:00
4:53 PM,23.0,19.0,85,30.37,7.0,Calm,Calm,-,N/A,,Mostly Cloudy,0,2012-12-31 00:53:00
5:00 PM,24.8,19.4,80,30.32,8.0,West,3.5,-,N/A,,Mostly Cloudy,260,2012-12-31 01:00:00
5:53 PM,25.0,19.0,78,30.38,9.0,West,4.6,-,N/A,,Mostly Cloudy,270,2012-12-31 01:53:00
6:53 PM,26.1,19.9,78,30.38,10.0,WSW,5.8,-,N/A,,Overcast,250,2012-12-31 02:53:00
7:53 PM,27.0,19.9,75,30.38,10.0,West,5.8,-,N/A,,Overcast,260,2012-12-31 03:53:00
8:53 PM,27.0,21.0,78,30.38,10.0,West,3.5,-,N/A,,Overcast,260,2012-12-31 04:53:00
9:19 PM,26.6,21.2,80,30.33,9.0,Calm,Calm,-,N/A,,Overcast,0,2012-12-31 05:19:00
9:53 PM,28.0,21.9,78,30.39,10.0,Calm,Calm,-,N/A,,Overcast,0,2012-12-31 05:53:00
10:53 PM,28.0,21.9,78,30.38,10.0,SW,3.5,-,N/A,,Overcast,230,2012-12-31 06:53:00
11:53 PM,28.0,21.9,78,30.39,10.0,West,3.5,-,N/A,,Overcast,280,2012-12-31 07:53:00